Overview Statistics Trail Chart Weather Telemetry Raw packets
 

This is the latest recevied weather packets stored in our database for station/object DP0GVN-13. If no packets are shown the sender has not sent any weather packets the latest 10 day(s).

<< 1 2 3 4 5 6 >>
Time Temp. Humidity Pressure Rain* Wind** Luminosity Snow
1778088612 -10° C 87% 968.6 hPa - - 0 W/m² -
1778086812 -10° C 86% 968.7 hPa - - 0 W/m² -
1778085012 -10° C 86% 968.8 hPa - - 0 W/m² -
1778083212 -10° C 87% 968.8 hPa - - 0 W/m² -
1778081412 -10° C 88% 968.6 hPa - - 0 W/m² -
1778079612 -10° C 86% 968.7 hPa - - 0 W/m² -
1778077812 -10° C 87% 968.8 hPa - - 0 W/m² -
1778076013 -10° C 88% 969.2 hPa - - 0 W/m² -
1778074212 -10° C 89% 969.4 hPa - - 0 W/m² -
1778072412 -10° C 89% 969.7 hPa - - 0 W/m² -
1778070612 -10° C 88% 970 hPa - - 0 W/m² -
1778068812 -10° C 88% 970.2 hPa - - 0 W/m² -
1778067012 -10° C 87% 970.4 hPa - - 0 W/m² -
1778065212 -10° C 87% 970.4 hPa - - 0 W/m² -
1778063412 -10° C 83% 970.6 hPa - - 0 W/m² -
1778061612 -10° C 84% 970.7 hPa - - 0 W/m² -
1778059812 -10° C 85% 971 hPa - - 0 W/m² -
1778058012 -10° C 85% 971.3 hPa - - 0 W/m² -
1778056212 -10° C 86% 972.1 hPa - - 0 W/m² -
1778054412 -10° C 86% 971 hPa - - 0 W/m² -
1778052612 -10° C 87% 970.9 hPa - - 0 W/m² -
1778050812 -10° C 86% 971.4 hPa - - 0 W/m² -
1778049012 -10° C 87% 972.1 hPa - - 0 W/m² -
1778047212 -8.89° C 86% 972.5 hPa - - 0 W/m² -
1778045412 -10° C 88% 972.9 hPa - - 0 W/m² -

* Rain since midnight (hover to see other rain measurements)
** Current wind speed in m/s (hover to see current wind gust speed)